Wind_Speed
12 13 14 13 13 13 13 16 21 24 25 27 28 29 30 31 32 32 32 32 31 30 29 27 25 23 20 18 16 14 13 11 9 8 7 6 6 6 5 5 4 4 3 4 4 4 5 6 5 4 5 7 8 8 7 7 7 8 8 7 8 9 8
12 11 12 13 12 13 14 18 23 25 25 27 29 29 30 32 33 33 33 33 32 31 30 28 25 23 21 18 16 15 14 11 10 10 9 7 6 5 4 5 5 5 4 4 4 5 4 4 4 4 6 8 8 8 8 8 8 8 8 8 8 9 9
12 11 12 13 13 13 15 18 23 26 27 29 30 30 30 33 35 35 34 33 31 30 29 28 25 22 21 19 17 16 14 12 12 11 9 6 5 5 5 6 6 6 5 4 4 4 4 4 4 4 6 7 7 8 8 8 9 8 7 8 9 9 9
13 11 12 14 13 14 15 17 22 26 28 30 32 32 32 33 34 34 34 34 32 31 30 28 26 23 21 19 18 17 16 14 13 11 8 7 6 6 7 7 7 7 6 5 5 5 4 4 3 4 6 6 7 8 8 8 8 8 7 8 8 9 10
12 10 11 12 11 12 13 15 21 25 27 30 32 32 32 32 31 31 32 33 32 31 31 28 26 23 21 20 19 18 16 15 14 12 10 9 8 8 9 8 8 7 7 8 8 7 6 5 5 6 6 6 7 8 8 8 8 8 8 8 9 10 10
10 9 10 11 10 11 12 15 21 27 29 30 32 32 31 30 30 29 29 30 29 29 29 27 25 24 22 20 19 17 16 15 14 13 12 10 10 10 10 9 8 8 10 11 9 9 9 8 7 6 6 7 8 7 7 8 8 8 8 9 9 10 9
9 8 10 12 11 12 13 15 21 27 28 29 29 29 29 30 29 28 28 28 28 27 28 27 26 25 23 22 19 18 16 16 15 14 12 11 10 10 10 9 10 11 11 11 11 11 12 10 8 7 8 9 9 8 7 7 8 8 9 9 9 8 8
10 8 9 12 12 13 13 14 19 24 26 27 28 28 29 29 29 28 28 28 28 28 28 28 26 26 24 23 21 19 17 17 17 15 13 12 11 10 10 11 11 12 12 13 13 13 14 14 12 11 10 10 11 10 8 6 6 7 9 9 9 8 8
11 11 11 12 12 12 12 14 19 23 24 26 28 29 29 29 29 29 28 29 29 28 28 27 27 27 25 24 22 20 18 17 16 15 13 12 12 11 12 12 13 13 14 15 14 14 16 16 14 13 11 12 14 13 9 7 6 7 9 10 9 9 9
10 12 12 11 11 10 10 13 17 19 21 23 25 27 29 29 29 29 29 29 29 29 28 27 27 28 26 25 22 20 19 17 16 16 14 13 14 14 14 13 14 14 11 9 10 11 11 10 9 9 10 11 14 14 11 8 6 7 9 9 9 10 11
9 10 11 11 11 9 11 12 13 15 19 22 23 26 28 29 30 29 29 31 29 29 29 28 28 29 27 26 23 21 20 18 17 17 16 15 15 16 15 14 14 10 6 4 4 3 4 5 5 6 8 8 9 9 9 7 7 8 9 9 10 11 12
7 8 10 12 12 11 12 13 12 14 19 22 24 25 26 28 30 29 29 31 30 30 30 29 29 30 29 26 25 22 21 20 21 19 18 17 17 15 14 14 13 10 7 7 6 5 6 6 5 6 7 6 4 4 7 8 8 10 10 10 10 12 12
7 8 9 11 11 11 12 12 12 14 19 23 25 26 26 28 30 29 27 29 31 31 32 31 31 31 29 27 26 26 23 22 23 22 19 18 17 14 14 14 13 12 10 10 10 10 8 6 6 7 7 7 8 10 11 10 10 11 11 10 10 11 11
8 8 9 10 11 11 12 12 12 13 17 22 24 25 26 27 29 30 28 27 31 33 33 32 32 32 30 28 28 28 25 24 25 23 20 19 17 16 16 16 15 14 14 14 13 11 8 6 7 8 9 11 13 12 10 10 10 9 9 10 11 11 9
9 9 9 10 12 12 12 12 12 12 15 20 22 23 24 25 27 30 28 26 29 32 33 32 33 33 31 29 28 30 29 27 26 23 20 19 19 18 18 18 17 16 16 15 12 9 8 9 9 10 12 12 11 10 9 10 10 9 9 10 11 10 9
9 9 10 11 12 13 13 12 12 12 14 18 22 23 24 25 27 29 28 26 26 29 32 33 34 33 31 27 26 30 31 28 25 23 21 22 22 22 21 19 18 17 16 14 12 11 11 11 11 11 12 11 11 11 11 10 10 10 10 10 10 10 10
8 9 10 11 11 12 12 12 12 11 12 18 23 24 25 27 28 29 28 27 28 30 33 34 33 32 30 23 22 27 30 28 26 24 24 24 23 22 21 19 17 17 16 14 14 13 12 11 12 12 11 11 12 13 12 11 10 11 11 11 12 12 12
6 7 9 10 10 11 12 13 13 13 14 19 23 25 26 27 28 29 29 29 28 28 30 30 27 26 23 17 19 26 28 27 26 26 25 24 23 21 20 18 18 18 17 17 16 14 13 12 13 12 12 13 13 12 12 12 12 12 12 11 10 11 12
2 4 7 9 9 10 12 12 12 15 18 22 24 26 28 31 31 30 29 28 27 25 23 22 23 23 18 15 22 29 28 26 27 26 25 24 22 21 20 19 19 20 20 19 17 15 14 13 13 13 13 13 12 12 13 14 14 11 8 7 7 8 9
2 2 4 7 9 10 10 10 11 16 21 25 26 27 29 31 31 29 28 28 27 25 22 21 23 24 21 22 28 31 28 26 26 26 25 24 23 22 22 22 22 22 21 20 17 16 15 14 13 13 12 11 11 13 15 16 13 9 7 8 9 8 8
4 4 3 6 8 9 9 9 11 15 19 22 25 27 28 29 29 29 29 30 31 29 24 20 21 24 26 28 30 30 28 28 27 27 26 24 23 24 24 24 24 24 22 20 18 17 16 15 13 12 11 11 13 15 16 14 11 9 10 10 9 8 9
7 7 6 7 8 9 12 15 17 19 21 24 28 28 28 30 31 31 32 32 32 30 25 20 20 25 28 29 30 29 29 28 27 27 27 26 26 26 27 27 27 26 23 21 20 18 17 16 15 13 13 14 15 16 15 13 11 10 11 10 8 8 9
6 7 8 8 8 11 19 24 24 23 25 27 29 29 30 31 32 32 31 30 29 27 24 22 23 27 30 30 31 30 29 29 29 28 28 27 27 28 29 29 28 26 24 22 21 20 18 18 16 15 16 16 15 14 13 12 11 10 10 9 8 9 8
3 5 7 8 8 9 16 22 25 26 28 29 28 28 32 34 34 32 30 28 28 27 25 24 25 27 30 32 31 30 30 30 29 29 29 29 30 31 31 29 28 27 25 23 22 21 20 19 18 16 15 14 13 13 13 13 12 10 9 10 10 10 7
1 5 9 12 12 12 14 20 24 26 27 27 26 29 34 36 34 32 29 27 28 27 24 25 27 28 31 32 32 30 29 29 30 30 30 31 32 32 30 29 28 26 24 23 22 21 21 20 19 18 17 15 15 14 12 12 10 9 9 10 11 9 7
6 8 10 12 14 13 14 19 23 25 26 27 28 31 35 36 33 30 28 27 25 24 25 26 28 30 32 31 29 28 28 29 30 31 32 34 35 34 32 31 29 26 24 23 21 21 21 21 21 20 17 16 15 12 9 8 8 9 10 10 10 8 7
11 13 13 14 15 14 13 14 17 22 24 27 30 33 35 35 32 28 26 24 23 24 27 29 29 29 29 28 28 27 28 29 30 33 36 35 30 25 22 22 21 20 20 19 18 20 21 21 21 20 16 12 11 10 9 8 8 10 10 10 8 7 6
10 12 13 15 16 15 13 12 13 19 23 27 31 34 35 34 29 27 25 24 26 27 27 27 28 28 28 27 27 27 28 30 32 31 25 17 9 7 9 10 11 10 10 14 18 19 18 16 16 16 15 13 11 10 10 10 10 10 9 8 6 5 5
8 9 10 13 15 15 14 10 6 7 16 26 31 31 33 32 27 25 25 22 23 22 17 15 19 23 26 27 27 28 29 29 26 19 14 12 11 11 12 12 10 9 10 14 16 14 13 11 11 11 12 13 12 12 12 11 10 9 8 7 6 6 5
7 8 9 11 12 11 12 14 12 9 7 11 25 28 28 29 25 21 20 18 15 14 11 8 9 11 14 17 18 21 23 20 14 10 11 14 12 9 10 13 13 11 11 12 11 10 14 17 13 10 10 11 12 12 10 9 9 8 7 7 7 6 5
7 10 11 13 16 18 18 17 17 6 15 14 13 26 25 24 23 20 18 15 12 9 7 6 7 7 8 6 6 8 10 11 9 6 6 6 5 4 9 14 16 14 12 11 11 10 13 18 19 15 12 10 11 11 8 7 8 8 7 7 7 6 5
9 12 14 16 19 22 20 16 16 13 8 21 4 19 23 20 20 19 15 12 8 7 8 9 8 7 6 4 2 4 4 5 6 5 4 6 8 10 11 11 12 13 13 14 13 11 12 15 19 20 17 13 12 11 9 8 8 7 7 8 8 7 5
9 11 12 16 19 22 23 19 16 14 3 16 7 15 21 18 18 16 12 11 9 8 9 7 6 6 5 4 3 3 3 3 5 7 8 10 11 12 12 11 11 11 12 14 15 15 15 17 20 22 20 15 12 11 10 9 8 7 9 11 10 7 6
8 10 12 17 22 22 22 20 18 17 8 8 6 13 21 17 15 14 11 12 10 6 5 5 4 5 6 5 4 3 4 6 8 10 10 9 8 8 9 10 9 9 10 12 15 18 19 20 20 20 15 12 11 10 9 9 10 10 11 11 9 7 7
8 12 13 16 21 24 22 19 18 23 20 5 4 11 19 15 13 13 11 9 4 1 4 7 6 5 4 3 2 3 6 9 10 10 9 7 7 8 8 8 7 8 9 12 14 18 19 19 19 17 11 9 10 11 11 12 13 13 12 10 8 8 8
8 12 14 17 20 24 25 22 18 21 24 18 10 9 13 13 12 10 6 1 2 3 5 6 6 5 4 2 1 3 5 7 8 8 7 8 10 10 7 6 5 6 8 11 14 16 15 13 14 14 11 8 8 9 11 13 14 12 11 9 9 9 7
11 12 14 18 20 20 21 23 21 19 20 20 15 10 11 12 8 3 1 4 6 6 6 5 5 4 4 3 1 0 1 2 3 5 6 8 11 11 9 7 6 5 5 7 10 11 10 8 6 7 7 6 5 5 6 9 11 11 10 9 9 8 6
13 16 17 17 18 18 18 19 20 18 16 18 17 12 9 6 5 5 6 10 10 8 6 6 5 4 3 2 2 4 5 4 3 6 8 10 11 12 12 11 9 7 5 6 7 7 6 5 4 3 3 4 5 6 8 10 10 9 8 7 6 6 4
Wind_Direction
166 166 168 172 171 168 166 163 163 165 164 165 168 170 170 173 175 176 178 179 178 178 179 182 184 184 184 184 185 187 186 189 196 197 197 202 210 222 234 243 240 236 259 293 295 285 308 334 350 358 336 329 333 335 333 327 321 322 328 331 323 319 322
172 170 168 171 170 165 164 162 163 165 165 166 170 172 174 175 178 179 180 181 180 180 181 183 184 184 184 184 185 187 190 194 198 198 203 211 220 227 226 223 231 248 268 288 290 284 308 345 351 337 322 323 329 331 328 322 319 319 318 321 324 326 329
179 173 167 170 169 164 164 163 165 167 167 168 172 175 178 179 181 182 182 181 181 181 183 184 184 184 184 185 187 190 194 195 197 202 210 215 212 211 216 229 249 263 267 272 273 279 305 321 315 313 318 322 321 324 324 317 316 318 312 313 322 326 325
179 171 166 171 169 165 165 165 166 169 170 172 175 178 181 183 183 184 184 182 181 182 184 185 185 184 184 188 191 193 195 194 198 204 207 210 214 221 229 239 251 255 259 263 260 271 293 299 293 302 311 312 311 317 320 315 315 315 309 309 312 312 313
170 159 161 168 165 163 165 165 167 169 171 174 177 179 182 183 184 185 185 184 183 185 187 186 185 184 184 190 194 195 196 197 201 206 208 212 218 224 231 239 245 246 248 252 256 263 268 265 274 286 290 294 302 309 310 311 313 309 303 300 296 298 303
160 151 160 165 163 165 166 166 170 171 172 175 177 179 180 181 183 185 186 185 184 186 187 186 185 183 184 191 195 194 195 199 204 208 211 213 218 227 237 243 245 243 245 250 255 255 258 265 271 271 272 281 290 295 296 298 300 302 301 294 287 290 296
162 159 163 164 163 167 169 170 171 172 174 175 175 176 178 179 182 184 185 186 185 185 187 187 185 184 185 190 194 195 197 200 203 205 209 215 223 232 239 243 248 251 252 252 252 251 257 265 264 261 269 273 276 281 286 288 291 296 298 293 289 287 287
164 167 166 169 168 168 171 170 169 170 172 172 173 176 178 179 180 181 183 186 186 185 187 188 186 184 186 189 192 195 198 200 204 207 213 219 224 229 235 243 250 255 256 255 255 254 258 262 258 259 271 273 272 274 273 279 293 296 292 290 291 286 282
165 173 175 177 172 168 172 172 169 169 170 171 175 177 178 179 180 181 183 184 186 186 187 189 188 185 187 189 192 195 198 203 208 210 213 216 219 225 232 242 252 259 263 263 262 258 258 260 256 260 272 277 276 272 264 272 291 303 303 297 293 287 282
165 178 182 183 179 170 170 170 165 167 171 173 175 176 178 180 180 181 182 184 186 187 186 187 188 187 187 189 191 195 200 205 209 209 210 213 218 226 233 242 251 256 257 259 260 259 261 266 266 274 282 286 284 271 256 264 290 314 319 308 295 290 288
158 172 178 184 186 171 163 166 167 170 175 175 175 177 178 179 180 181 182 183 184 185 185 187 188 186 187 188 189 193 198 204 210 211 211 214 222 231 239 243 244 245 247 252 255 260 274 285 293 301 303 307 302 273 254 275 303 315 318 306 297 298 297
151 158 167 180 183 174 169 172 173 174 176 176 177 179 179 178 180 182 181 181 183 184 184 186 188 187 187 187 188 190 195 204 212 214 214 216 221 227 232 237 243 252 262 260 258 270 280 285 294 305 310 320 331 305 293 304 310 309 305 293 292 300 302
157 157 162 173 177 175 175 176 176 176 177 178 180 182 182 180 181 183 182 180 182 183 184 186 187 185 184 185 187 191 197 205 211 213 215 218 220 224 229 237 245 249 247 246 257 272 276 281 290 298 305 308 308 310 310 309 305 299 289 277 283 294 295
161 162 157 166 174 176 178 180 181 179 176 177 180 182 184 184 184 187 188 185 183 183 184 185 183 182 184 186 188 193 201 207 208 210 212 214 219 226 230 233 236 235 238 249 261 270 273 277 282 285 292 296 300 306 307 307 301 288 276 276 285 290 286
164 166 158 163 175 178 179 180 182 179 177 178 178 180 184 185 186 190 195 195 189 185 184 182 179 180 185 187 191 198 205 207 207 209 211 211 215 221 223 226 230 234 244 254 259 263 269 272 271 278 287 291 296 299 300 303 298 285 282 288 288 285 283
171 175 168 166 174 180 181 181 182 179 175 178 180 180 182 184 187 192 196 192 183 178 178 177 176 177 180 185 196 204 205 205 205 208 211 211 214 219 223 228 233 236 241 244 245 251 258 261 264 274 281 281 285 294 296 295 289 284 288 289 285 282 278
179 186 183 177 174 177 180 179 179 179 177 181 185 182 180 181 185 188 184 175 166 163 164 166 167 171 174 182 199 204 202 202 204 206 209 212 216 220 226 231 232 233 236 237 239 246 250 255 262 269 271 272 280 291 292 285 283 285 287 287 286 282 273
195 196 193 190 175 171 178 178 175 180 184 186 186 182 178 175 175 175 171 163 157 156 157 158 160 167 174 189 206 203 199 201 204 206 210 213 217 221 225 228 230 232 235 237 239 245 249 251 257 263 267 270 276 286 288 286 285 286 285 287 288 283 273
187 182 181 185 178 171 178 180 176 178 183 186 186 182 177 172 170 170 166 156 145 142 150 162 174 185 196 213 214 208 206 208 209 210 212 214 217 222 224 227 230 233 235 237 242 248 251 250 253 261 267 268 272 280 284 284 283 281 281 289 296 288 271
169 181 167 170 174 179 183 186 181 178 180 184 183 178 173 171 170 165 157 151 145 147 160 181 193 201 211 216 213 210 211 213 212 213 215 216 219 222 224 227 230 233 235 237 242 248 251 252 254 259 262 263 269 280 284 280 273 268 279 299 307 295 271
197 205 198 177 175 181 184 186 185 181 178 176 171 167 166 167 163 154 151 156 161 166 181 195 201 205 209 208 207 209 211 212 213 215 217 218 220 223 225 227 229 231 233 235 238 242 248 252 255 257 259 262 272 280 281 273 261 263 282 298 305 296 280
201 203 213 203 188 184 185 188 188 182 173 166 163 164 164 164 160 155 157 165 169 175 188 200 204 206 205 205 206 209 211 212 213 215 218 218 220 223 225 226 228 230 231 232 235 238 243 248 251 255 258 263 270 273 271 263 261 275 286 289 298 302 290
195 205 203 195 189 189 190 190 187 177 168 163 163 165 165 162 160 160 163 166 171 181 194 203 208 207 204 206 210 212 212 214 215 217 219 219 220 224 226 226 228 229 229 231 234 236 241 245 247 254 260 262 262 262 262 262 270 283 285 281 293 305 293
202 193 167 150 150 167 175 178 177 171 166 163 163 166 165 162 164 167 170 171 177 189 202 207 209 208 205 208 213 214 214 216 218 219 221 221 223 225 226 226 227 228 229 230 232 236 240 243 247 253 255 255 257 258 258 260 267 273 272 276 294 301 286
147 127 128 131 138 145 149 158 166 167 164 161 162 165 166 166 169 172 176 181 186 194 204 209 208 207 208 212 215 216 217 218 220 222 224 225 227 228 227 228 228 228 229 230 232 237 241 243 245 246 245 251 262 264 255 248 253 260 262 277 297 297 272
132 123 122 124 134 144 148 153 160 165 166 164 163 165 168 169 172 176 181 187 190 195 202 206 208 208 211 215 216 218 221 222 222 224 226 228 229 228 227 229 229 227 227 228 230 237 242 243 240 238 242 254 259 251 234 228 241 258 272 290 302 291 262
127 129 128 127 134 146 154 158 162 165 167 165 163 165 170 172 174 181 187 188 189 195 202 206 208 210 212 216 219 221 225 226 226 228 230 232 234 235 235 237 236 230 227 228 232 238 241 240 236 234 241 251 245 230 228 241 256 270 284 297 298 280 258
123 129 134 139 145 152 161 169 165 159 159 161 162 166 170 172 175 181 185 188 193 198 204 209 212 216 219 221 225 226 228 231 232 232 233 235 249 274 272 267 267 262 250 246 248 248 241 230 227 234 237 235 234 240 251 261 268 276 284 289 283 265 254
132 130 130 138 148 156 157 148 124 132 157 161 161 165 169 169 173 179 177 180 189 191 189 196 207 217 222 224 228 229 231 235 235 233 238 243 245 249 250 249 254 259 256 255 259 267 264 244 225 228 235 235 237 247 257 261 264 268 271 270 261 252 254
129 123 121 125 129 127 116 100 75 16 311 186 160 161 167 163 159 160 153 148 158 162 155 163 189 209 221 226 231 234 235 236 233 230 239 241 239 249 259 253 247 247 257 264 264 271 282 283 270 246 240 245 249 251 253 256 258 257 255 249 238 236 258
87 94 96 86 76 74 76 91 108 95 308 289 168 151 157 155 144 135 130 130 138 148 161 190 204 213 230 240 249 251 242 229 223 225 231 225 219 248 261 253 244 240 245 250 247 247 270 288 293 281 258 248 253 256 250 243 248 247 237 229 226 232 268
80 84 90 86 81 87 92 91 104 113 314 303 268 136 139 146 138 127 125 134 150 166 177 191 199 201 216 231 250 269 250 218 221 241 255 259 261 263 264 257 243 233 228 231 239 244 248 263 277 278 270 260 260 258 242 226 230 227 214 215 224 239 275
87 82 95 107 108 113 116 108 98 99 17 302 287 122 120 127 131 131 142 155 165 180 184 190 199 196 198 210 226 255 263 253 266 279 284 287 288 283 277 269 251 234 227 229 237 246 252 256 260 262 264 263 255 244 226 211 206 202 205 213 224 247 283
104 100 107 121 126 126 124 120 116 110 96 299 277 121 117 123 128 134 150 152 146 144 143 149 181 192 190 199 215 249 279 281 282 284 283 285 286 273 260 255 247 235 230 232 238 244 251 253 250 250 255 251 233 208 185 189 206 217 219 221 235 267 293
109 109 111 120 126 127 125 125 126 123 125 172 242 115 114 121 122 121 128 128 113 82 125 136 153 164 160 174 226 269 277 271 267 270 266 246 229 222 219 224 236 237 231 236 244 247 247 246 246 249 252 239 217 195 183 202 224 230 227 232 257 285 292
109 105 108 112 116 123 128 131 136 137 142 157 173 134 120 127 130 124 119 107 279 235 163 153 165 170 162 171 233 266 264 253 247 252 244 220 211 208 200 202 221 226 223 230 242 250 253 252 251 250 247 233 217 207 215 230 236 229 225 241 266 277 274
133 123 123 122 122 127 134 139 147 154 155 157 162 152 130 129 134 138 253 232 206 185 171 171 173 171 176 190 192 104 115 187 213 228 221 211 211 208 198 191 193 194 200 215 228 243 256 261 257 251 247 238 220 197 202 217 220 219 224 240 253 253 245
152 146 145 143 140 144 150 156 162 167 163 158 155 144 132 151 219 230 197 185 181 172 170 173 163 163 188 192 104 85 89 107 169 193 187 186 195 199 195 192 191 182 169 179 198 218 239 255 265 261 234 214 207 190 176 180 190 202 211 217 228 230 206
Height
744 746 748 750 752 755 758 761 765 769 773 777 781 783 786 788 791 793 795 797 799 800 802 803 805 807 808 810 811 813 814 816 817 818 819 820 820 821 822 822 823 823 823 823 823 823 823 823 823 823 823 823 823 823 823 823 823 823 822 822 822 822 821
741 744 746 748 750 753 755 758 762 766 769 773 777 781 783 785 788 790 792 794 796 798 800 801 803 805 806 808 810 811 813 814 815 817 817 818 819 819 820 821 822 822 822 822 822 822 822 822 822 822 822 822 822 822 822 822 822 822 821 821 821 821 821
739 741 743 745 747 749 752 754 758 762 765 770 773 778 781 782 785 787 789 792 794 797 798 799 801 803 805 807 809 809 811 812 813 814 816 816 817 818 819 820 820 821 821 821 821 821 821 821 821 821 821 821 821 821 821 821 820 820 820 820 820 820 820
737 737 739 742 743 745 748 750 754 758 762 765 769 773 777 780 783 785 787 789 791 794 796 797 799 801 803 805 806 808 809 810 812 813 814 815 816 817 818 818 819 819 820 820 820 820 820 820 820 820 820 819 820 820 819 819 819 819 819 819 819 819 819
735 736 738 741 742 745 746 748 752 755 759 763 766 770 774 778 782 784 787 787 789 792 794 795 797 798 801 803 804 806 807 809 810 811 812 813 814 816 816 817 817 818 818 818 818 819 819 819 818 818 818 818 818 818 818 818 818 818 818 818 818 818 817
735 736 739 740 743 745 744 746 750 752 756 760 763 768 771 776 780 783 786 787 788 791 793 794 795 796 799 801 803 805 806 808 809 810 811 812 813 814 814 816 816 816 816 816 817 817 817 817 817 816 816 816 816 816 816 817 817 817 817 817 817 816 816
734 735 737 738 740 742 742 744 747 750 754 758 761 766 770 773 777 780 784 786 787 789 792 793 794 794 797 799 802 804 805 806 807 808 810 810 811 812 813 814 814 814 814 815 816 816 816 816 815 814 815 815 815 815 815 815 815 815 815 815 815 815 815
731 733 735 735 735 738 740 742 745 749 752 756 760 764 767 771 774 777 780 783 785 787 789 791 792 793 795 797 800 802 803 805 805 806 807 808 810 810 811 812 812 812 813 813 814 814 814 813 813 813 813 813 813 813 813 813 813 813 813 813 813 813 813
729 730 732 732 733 735 737 739 743 746 750 754 757 760 764 767 770 774 777 780 783 784 786 789 790 791 793 795 798 801 803 804 805 806 806 806 808 809 809 810 810 810 810 811 811 812 812 812 811 812 811 811 811 811 811 811 811 811 811 811 811 811 811
728 730 729 730 732 733 735 738 741 745 748 751 754 757 761 763 767 771 774 777 779 781 783 786 788 789 791 793 796 799 801 803 805 805 805 805 806 807 808 808 808 808 809 809 810 810 810 810 810 810 810 810 809 809 809 809 809 809 809 809 809 809 809
727 730 730 730 732 733 735 738 740 743 745 748 752 755 757 760 764 767 770 773 776 778 780 783 785 788 789 791 794 797 800 803 804 804 803 803 804 805 805 806 806 807 808 808 808 808 809 809 809 809 809 808 807 807 808 808 807 807 807 807 807 807 807
726 728 730 731 731 733 735 736 738 740 742 746 749 752 755 758 762 765 767 770 772 774 777 780 783 785 786 789 792 796 799 800 802 802 802 801 802 803 803 804 805 805 805 805 806 806 807 807 807 807 807 807 806 806 807 806 806 805 805 805 805 805 805
724 725 728 729 729 732 733 734 737 738 740 744 746 750 753 755 759 762 764 767 769 771 773 776 779 782 784 786 789 793 795 795 797 799 799 799 800 800 801 802 803 803 803 804 804 804 805 805 805 805 805 805 805 805 805 804 804 803 803 803 803 803 803
724 724 726 727 728 731 733 734 736 736 739 742 744 748 751 754 757 758 761 764 765 767 770 773 776 779 781 783 787 791 792 792 794 796 796 797 797 798 799 799 800 801 801 802 802 802 803 803 803 803 803 803 803 803 803 802 801 801 801 801 801 801 800
724 724 725 727 728 729 731 733 734 735 737 740 743 747 749 753 755 757 759 761 762 764 767 769 773 775 778 782 786 790 790 791 792 793 794 795 795 796 796 797 798 798 799 800 800 800 801 801 801 801 801 801 801 800 800 800 799 799 799 799 798 798 798
724 724 723 725 725 725 726 729 730 732 735 737 740 743 746 750 753 755 757 759 760 762 764 767 770 773 778 782 786 788 789 789 790 790 791 792 792 793 793 794 795 796 797 797 797 798 798 798 799 799 799 799 798 798 798 797 797 797 797 796 796 796 796
721 722 722 721 722 723 723 725 727 730 732 734 737 739 742 746 749 753 756 757 758 760 762 766 769 773 778 781 783 785 787 787 787 788 789 789 789 790 791 793 794 794 795 795 795 795 795 796 796 796 797 796 796 796 796 795 795 794 794 794 794 793 793
718 720 720 719 720 721 722 723 725 727 729 731 734 736 739 743 746 751 753 755 757 760 764 768 771 775 777 779 782 784 784 785 785 785 786 786 787 788 789 791 792 792 793 792 792 793 793 793 793 794 794 794 794 794 793 793 792 792 792 792 791 792 791
716 716 716 718 718 719 720 720 720 722 725 728 731 734 736 739 743 747 751 754 758 761 765 769 771 773 774 777 780 781 781 782 782 783 784 784 785 787 788 789 790 790 790 790 791 791 791 791 791 791 792 792 792 792 791 790 790 789 789 789 789 789 789
714 713 713 715 716 717 717 717 717 719 721 724 728 731 735 738 741 745 749 753 755 758 762 765 767 769 771 774 777 778 779 780 780 781 782 782 783 784 785 786 786 787 787 788 789 790 789 789 789 789 790 790 790 790 789 788 788 787 787 787 787 787 787
710 711 712 713 714 716 716 715 716 718 720 723 727 730 734 737 740 744 747 749 751 754 759 763 765 767 770 772 774 776 776 777 777 778 779 779 780 781 782 783 783 783 785 785 787 787 787 787 787 787 787 787 788 787 787 786 786 785 785 785 784 784 784
707 707 708 708 710 711 712 712 714 715 718 721 725 728 732 735 738 742 745 747 750 755 759 762 764 766 769 770 772 773 773 774 775 776 776 776 777 778 778 779 779 780 782 783 784 784 784 785 785 785 785 785 785 785 785 784 784 783 783 782 782 782 782
701 702 703 703 704 706 707 709 710 713 717 719 723 726 729 733 738 741 744 747 751 755 759 761 763 765 767 768 769 769 770 772 772 772 773 774 774 774 775 775 776 778 779 780 781 781 782 782 782 783 782 782 782 783 783 782 782 781 781 781 780 780 780
696 698 699 700 702 703 705 707 709 712 715 718 721 725 728 732 737 740 743 746 749 754 758 759 760 763 764 765 766 767 767 769 769 770 771 771 771 771 771 772 774 775 776 777 778 778 779 779 780 780 780 779 780 780 780 780 779 779 779 779 779 778 777
696 697 699 700 702 703 705 707 709 711 714 717 721 724 726 731 735 738 742 745 748 752 755 756 758 760 761 762 763 764 765 766 767 768 768 768 768 768 769 770 771 772 773 775 775 776 776 777 777 777 777 777 777 777 777 777 777 777 777 777 777 776 775
697 698 699 700 703 705 706 708 709 711 713 715 719 722 726 730 734 737 741 743 747 750 751 753 755 756 758 760 760 762 763 763 764 765 764 764 764 765 767 767 768 770 771 772 773 773 774 774 774 774 774 774 774 774 775 775 775 775 775 775 775 774 773
695 697 698 700 703 705 707 709 709 710 712 715 718 721 725 729 732 736 740 742 745 747 748 750 752 754 756 758 759 760 761 761 761 761 761 761 763 766 769 770 770 771 771 771 772 771 771 771 771 771 771 772 772 772 772 773 773 773 773 773 773 772 772
695 697 699 700 702 704 707 709 710 711 713 715 718 721 724 728 732 735 738 740 742 743 745 748 750 753 754 756 757 758 759 759 759 760 761 763 767 771 772 772 772 772 773 773 772 770 770 769 768 769 769 769 770 770 771 771 771 771 772 772 772 771 770
697 699 699 700 702 705 706 709 713 716 716 715 717 721 723 727 731 734 736 739 740 742 745 747 749 751 753 754 755 756 757 758 758 759 761 763 765 767 767 767 768 769 771 771 771 772 773 770 766 767 768 767 768 768 769 769 769 769 770 770 770 769 769
698 699 700 702 705 706 707 710 716 724 727 721 717 720 724 726 730 733 736 738 740 742 744 745 748 750 751 753 754 755 756 758 758 758 759 760 761 764 766 766 766 766 768 769 769 771 775 773 769 766 765 765 766 766 767 767 767 767 768 768 768 768 768
701 702 703 706 709 710 712 713 715 725 735 732 722 719 723 726 729 732 735 737 739 741 743 745 747 748 750 751 753 754 755 756 756 757 757 758 759 761 763 765 764 763 764 765 765 767 770 772 772 769 765 763 764 765 765 765 765 766 766 766 766 766 766
705 705 706 708 711 712 715 717 717 722 734 739 731 721 721 725 729 732 735 737 739 741 743 745 746 746 748 749 750 752 753 754 755 756 756 757 757 758 759 761 761 761 762 762 762 763 763 764 768 770 767 763 762 764 764 764 764 764 764 764 765 765 765
708 708 708 709 710 712 714 717 720 723 732 742 739 728 724 727 730 733 736 738 740 742 742 743 744 745 746 748 749 751 752 753 753 754 754 755 755 756 757 757 758 759 760 760 760 761 760 759 762 765 764 761 761 762 763 762 763 763 763 764 764 763 763
709 708 709 709 710 712 714 716 719 721 730 742 742 732 727 730 733 735 737 738 739 739 739 741 742 743 745 747 748 749 751 751 752 752 752 753 754 754 755 756 757 757 758 759 759 758 758 758 759 760 761 760 759 760 760 761 761 761 762 762 762 762 762
710 710 711 711 711 713 715 719 721 719 725 738 741 733 728 731 734 735 736 736 737 738 738 739 741 743 744 745 746 748 749 750 750 750 751 752 752 754 755 755 756 757 757 757 757 756 756 756 757 758 758 757 757 757 757 757 758 758 760 761 761 761 761
712 712 712 713 714 714 716 720 723 722 723 730 735 733 730 731 733 734 735 736 737 737 738 739 740 742 743 744 745 746 747 747 748 749 750 750 751 752 754 755 755 755 755 756 755 754 754 754 754 755 755 755 755 755 755 755 755 756 758 760 760 760 759
713 713 713 714 715 716 717 719 722 725 725 726 729 730 730 730 732 734 735 737 737 736 737 739 740 741 742 743 744 744 745 746 747 748 749 750 750 751 752 753 753 753 753 754 754 753 753 752 752 753 753 753 753 754 754 755 755 757 758 759 759 759 758
713 712 714 714 714 717 719 718 720 724 725 725 726 728 729 731 733 733 734 736 736 736 738 739 740 740 741 742 743 743 744 745 746 746 747 748 749 749 750 750 751 752 752 752 753 753 753 752 752 752 752 753 754 755 755 756 757 758 758 759 759 758 757